Wind_Speed
18 18 18 18 18 19 20 21 22 21 21 21 20 21 21 22 23 22 22 22 23 24 24 24 24 23 24 24 25 26 27 28 27 28 29 29 29 30 32 33 34 34 35 34
18 18 18 17 16 18 19 20 20 20 20 20 21 20 21 21 21 22 22 21 22 22 23 23 23 23 22 22 22 25 26 26 27 27 27 28 28 30 31 31 33 33 33 32
18 18 18 18 17 18 19 19 20 20 19 20 21 21 21 21 21 22 21 22 22 22 21 21 21 21 21 22 22 23 24 24 25 27 28 28 28 29 29 30 31 32 32 31
19 18 18 17 17 18 18 19 19 19 20 21 21 21 21 21 22 22 22 23 22 21 20 19 19 20 21 21 20 21 22 23 24 25 26 27 27 27 27 28 29 31 31 31
20 19 18 17 17 18 18 18 18 19 20 21 22 21 21 21 22 22 22 22 21 20 20 19 18 18 20 20 20 20 22 22 22 24 24 25 26 26 25 26 27 28 30 30
19 19 19 18 18 18 18 18 18 19 20 22 22 21 21 22 22 22 23 22 21 20 19 19 18 18 18 18 19 20 21 21 21 21 22 22 22 23 25 25 26 28 29 29
19 19 19 19 19 18 18 18 19 20 21 22 22 22 22 22 22 22 22 22 21 20 20 19 18 17 17 17 18 19 19 20 21 21 21 21 21 22 23 25 26 26 27 28
19 19 18 18 18 18 18 19 19 20 22 22 23 23 23 23 23 23 22 22 21 20 20 19 18 17 18 18 18 19 19 19 20 20 20 21 21 21 22 24 25 25 25 26
19 19 19 18 18 18 19 19 20 21 22 23 23 23 22 22 22 22 22 22 21 21 20 19 18 18 19 18 19 19 20 20 20 20 21 22 21 21 22 22 23 23 23 24
18 18 18 18 18 19 20 20 21 22 22 23 23 22 22 22 21 21 21 21 21 21 20 19 19 19 19 19 19 20 20 20 20 21 21 21 21 21 21 21 21 21 21 22
18 18 18 17 18 19 20 21 21 22 22 22 22 22 22 22 22 21 21 20 20 20 20 20 20 20 19 20 20 20 20 20 20 20 20 19 19 19 19 19 20 20 21 22
17 17 18 18 18 19 20 20 21 21 21 22 22 21 21 22 21 21 21 20 20 20 20 20 20 19 19 19 19 18 18 18 18 18 18 18 19 19 19 20 20 20 20 22
17 18 19 19 19 19 19 19 20 20 20 20 21 20 20 20 20 20 21 20 20 20 20 19 18 18 18 18 17 17 17 17 17 17 18 18 18 18 19 19 20 20 20 21
18 19 18 18 18 18 19 19 19 19 19 20 20 20 20 19 19 19 20 19 19 19 18 17 16 16 16 16 15 15 16 16 16 16 16 17 17 18 18 19 20 20 20 20
19 18 18 19 19 19 19 19 19 19 20 21 20 20 19 18 18 19 19 19 19 18 17 16 15 16 16 16 15 15 15 15 16 16 16 17 17 17 17 18 19 18 18 18
18 18 18 19 20 20 20 20 20 20 21 21 20 19 18 17 18 18 18 18 18 17 16 16 16 16 16 16 15 15 15 15 16 16 17 17 17 17 17 17 18 17 18 18
19 19 18 19 20 20 20 20 21 21 21 20 19 18 18 18 18 19 18 19 18 17 16 15 15 16 16 15 15 15 14 14 15 16 16 16 16 16 16 16 16 16 16 17
19 19 19 20 20 20 20 20 21 21 21 20 19 19 18 18 19 19 19 18 17 16 16 15 15 15 14 14 14 14 13 14 14 14 14 15 15 14 14 14 14 14 15 15
20 20 20 20 19 19 20 20 20 20 20 20 20 19 19 19 19 19 18 18 17 16 16 16 15 14 14 14 14 13 13 13 13 13 13 12 12 13 13 13 13 13 13 13
20 20 20 20 20 21 20 20 20 20 21 21 20 20 20 19 19 18 18 17 17 16 16 16 15 14 14 14 14 13 12 13 12 12 11 10 11 11 12 12 12 12 12 12
19 20 20 21 21 21 21 21 21 21 21 21 20 20 19 19 18 18 17 16 16 15 15 15 14 14 14 13 12 12 12 12 11 11 10 10 10 11 12 12 12 12 12 12
20 21 21 21 21 22 22 22 22 22 22 21 20 19 18 18 17 17 16 16 15 14 14 13 13 13 12 12 12 11 11 11 10 10 10 10 11 11 11 11 11 11 10 11
21 21 21 21 21 21 22 22 22 22 21 21 20 19 19 18 17 16 16 16 15 14 13 13 12 12 11 11 11 11 11 10 11 10 10 9 9 10 10 10 9 9 9 10
20 20 21 21 21 21 22 22 21 21 21 20 20 19 18 17 17 16 16 15 14 13 13 12 11 11 11 10 10 10 10 10 10 9 9 8 8 9 9 8 8 8 9 9
19 20 20 21 21 21 21 21 20 20 20 19 19 18 17 16 16 15 15 14 13 12 12 11 11 10 10 9 9 9 9 9 8 8 8 7 8 8 7 7 7 7 7 8
19 19 20 20 20 20 20 19 18 18 18 18 17 16 15 15 15 14 14 13 13 12 11 11 10 10 9 9 9 9 9 9 8 8 8 8 8 7 7 7 6 6 6 7
18 19 19 19 19 19 19 18 17 17 17 16 15 14 14 14 14 14 13 13 12 12 11 11 11 10 9 9 9 8 8 8 8 8 8 8 8 8 7 6 6 6 6 6
Wind_Direction
274 276 277 279 284 287 292 297 300 303 304 305 307 307 305 306 307 306 306 303 297 292 287 283 278 273 270 270 265 262 261 261 260 261 261 261 259 257 255 254 252 250 248 249
275 278 280 282 285 286 290 296 301 303 304 304 309 306 304 306 307 308 309 309 304 297 292 286 280 275 273 270 266 261 259 260 261 261 261 260 259 255 253 252 251 251 251 251
277 281 281 280 283 287 291 296 299 300 302 303 307 306 304 304 305 308 308 309 307 303 297 288 283 277 271 272 268 263 262 263 264 259 259 259 257 254 252 251 251 252 251 252
278 280 281 283 283 285 289 293 297 300 301 304 307 307 305 304 305 305 307 308 309 307 301 293 285 279 274 273 269 265 265 268 266 262 260 259 258 254 252 250 249 250 250 252
279 279 280 285 286 286 288 291 296 300 302 303 305 306 306 305 305 304 305 307 308 308 304 298 289 282 279 276 273 270 270 270 268 265 262 260 257 255 253 251 249 250 251 253
278 279 282 287 289 289 289 291 295 298 301 304 305 304 304 305 305 305 303 305 308 308 306 301 293 285 283 279 277 276 273 270 270 270 265 263 260 257 254 250 250 251 253 255
276 278 281 286 288 290 291 294 295 297 300 303 304 303 303 303 303 306 305 304 305 305 304 303 296 289 285 282 278 276 275 272 272 272 269 266 263 260 255 253 254 255 255 256
273 276 281 284 287 289 292 294 297 298 300 302 303 303 303 303 303 305 305 305 304 304 302 301 297 292 289 285 281 280 278 275 273 271 270 270 266 261 256 254 254 254 255 255
271 275 278 280 284 289 294 297 298 299 299 300 301 302 302 303 304 305 304 304 303 302 301 299 296 293 291 287 285 283 280 279 276 273 273 270 266 260 255 254 253 254 254 256
270 272 276 280 284 288 293 297 300 300 299 299 300 300 300 303 304 305 304 303 302 301 298 296 295 293 291 288 284 282 279 278 276 274 273 268 262 258 256 254 254 254 254 256
270 273 275 279 284 289 293 297 299 302 302 302 300 299 299 299 301 302 302 302 301 300 298 295 293 291 289 287 284 282 280 276 273 272 269 264 260 258 256 256 257 257 256 256
273 273 275 279 284 288 292 296 299 301 302 303 303 303 299 299 298 299 300 299 298 297 296 295 291 289 288 288 286 283 279 276 273 272 266 264 261 259 257 257 258 260 261 259
273 273 276 280 284 289 292 296 299 301 302 303 304 306 303 301 300 299 300 299 297 296 297 297 291 289 290 290 288 283 278 275 274 272 269 266 262 261 260 258 259 262 265 263
275 275 277 281 284 289 294 296 298 300 302 304 305 305 304 302 301 299 300 301 299 299 300 298 293 292 293 293 290 284 278 275 273 273 271 267 265 265 263 261 261 263 265 264
275 277 280 283 287 290 292 296 298 300 303 305 306 305 302 300 300 299 299 300 301 300 298 298 294 293 295 294 291 286 281 276 272 272 272 271 270 269 266 263 262 264 264 262
277 281 285 287 289 291 292 293 295 299 303 304 306 305 303 299 298 298 298 299 301 300 297 295 293 293 295 293 291 287 283 278 274 274 273 272 271 270 268 266 264 262 262 259
279 282 286 291 294 296 296 295 296 298 302 304 304 303 301 298 298 297 297 298 299 298 295 293 294 295 294 293 291 288 282 278 278 278 276 272 271 270 268 266 265 264 262 257
280 282 286 291 296 300 301 298 299 300 302 300 300 299 298 296 297 297 297 297 298 296 295 294 294 295 296 295 291 288 283 280 280 281 280 275 272 270 267 266 265 264 261 256
283 285 287 292 296 300 301 301 302 301 302 301 298 297 297 296 296 295 295 295 294 292 293 294 293 291 291 293 291 289 285 281 280 282 281 275 272 270 269 267 264 264 261 253
284 285 288 292 296 299 301 301 302 303 303 302 301 299 296 295 295 294 294 294 293 293 292 290 287 287 287 288 288 285 283 282 282 282 278 273 273 272 271 268 265 265 261 254
285 287 290 293 296 298 299 300 302 303 304 303 300 298 295 294 293 293 294 295 295 294 291 288 285 285 286 286 286 283 281 281 281 279 274 270 272 275 273 270 268 266 261 253
286 289 292 293 294 296 298 299 300 301 301 301 298 295 294 292 291 291 292 294 295 294 291 287 285 285 285 285 285 282 281 281 280 279 276 275 276 277 276 273 270 264 256 247
287 290 291 291 293 296 297 298 298 299 299 298 295 292 292 291 290 289 291 292 293 293 291 288 285 284 284 285 284 282 281 280 279 276 275 276 278 279 278 274 267 257 248 242
287 289 291 293 294 295 296 297 297 296 296 295 292 291 290 289 288 288 289 291 290 288 288 287 286 284 282 282 281 279 279 279 278 274 272 275 282 284 279 271 262 254 246 240
290 292 293 294 296 296 297 296 296 295 294 293 291 289 287 286 287 288 289 289 287 286 287 286 283 281 280 278 275 275 277 278 277 276 275 277 281 283 278 270 262 255 244 238
293 295 295 296 298 298 299 297 295 294 294 293 291 286 283 284 287 289 288 286 283 283 284 282 280 278 275 271 270 271 272 273 276 277 277 279 280 278 274 268 257 247 236 230
295 296 297 297 299 300 300 297 294 293 293 292 290 286 283 284 286 286 287 286 284 282 281 278 276 273 271 270 270 270 270 273 275 276 275 275 275 274 270 260 250 238 232 227
Height
5623 5622 5621 5620 5619 5617 5615 5613 5612 5610 5607 5605 5601 5598 5594 5591 5587 5584 5580 5576 5572 5570 5568 5566 5565 5564 5563 5563 5563 5564 5564 5565 5566 5567 5568 5568 5569 5570 5572 5573 5576 5578 5581 5583
5618 5617 5615 5614 5613 5611 5610 5608 5606 5604 5602 5600 5597 5593 5590 5587 5583 5580 5576 5572 5568 5565 5562 5561 5559 5558 5558 5557 5557 5558 5558 5559 5560 5560 5561 5561 5562 5563 5564 5566 5568 5570 5573 5575
5612 5611 5610 5609 5608 5606 5605 5603 5601 5599 5598 5594 5591 5588 5585 5582 5579 5576 5572 5568 5565 5561 5558 5556 5554 5554 5553 5552 5552 5552 5552 5553 5553 5554 5554 5555 5556 5556 5557 5559 5561 5563 5565 5568
5606 5606 5605 5607 5603 5601 5600 5598 5596 5594 5591 5589 5586 5583 5580 5577 5574 5571 5568 5564 5560 5557 5554 5551 5550 5549 5548 5547 5547 5546 5546 5546 5547 5547 5547 5548 5548 5549 5550 5551 5553 5556 5558 5560
5600 5599 5599 5600 5597 5595 5594 5593 5591 5588 5586 5583 5580 5578 5575 5572 5569 5566 5563 5560 5556 5553 5550 5547 5545 5544 5543 5542 5542 5541 5541 5541 5541 5540 5541 5541 5541 5542 5543 5544 5546 5548 5550 5553
5594 5593 5593 5594 5592 5589 5589 5587 5585 5583 5580 5577 5575 5573 5571 5567 5564 5561 5558 5555 5551 5548 5545 5543 5541 5539 5538 5537 5537 5536 5535 5535 5534 5534 5534 5534 5535 5535 5536 5538 5539 5540 5542 5544
5588 5587 5587 5587 5585 5584 5584 5583 5579 5576 5574 5572 5569 5567 5565 5561 5559 5555 5552 5549 5546 5543 5541 5538 5536 5535 5533 5532 5531 5531 5530 5529 5529 5528 5528 5528 5528 5529 5529 5530 5531 5533 5535 5536
5582 5581 5584 5581 5580 5579 5578 5575 5573 5570 5568 5566 5563 5560 5558 5555 5553 5550 5547 5544 5541 5539 5536 5533 5531 5530 5528 5527 5526 5525 5524 5523 5523 5522 5522 5522 5522 5522 5522 5523 5524 5526 5527 5528
5577 5578 5576 5575 5574 5573 5571 5569 5567 5565 5562 5560 5557 5555 5552 5550 5547 5544 5542 5539 5536 5534 5531 5529 5526 5525 5523 5522 5520 5519 5518 5517 5517 5516 5516 5516 5516 5516 5516 5517 5518 5519 5520 5521
5570 5570 5570 5569 5568 5567 5565 5563 5561 5559 5556 5554 5551 5549 5546 5544 5541 5539 5536 5533 5531 5529 5526 5524 5521 5519 5518 5516 5515 5513 5512 5512 5511 5510 5510 5509 5509 5509 5510 5511 5512 5513 5513 5514
5563 5564 5563 5563 5562 5560 5559 5557 5555 5553 5550 5547 5545 5542 5540 5538 5536 5533 5530 5528 5526 5523 5521 5519 5517 5514 5512 5511 5509 5508 5506 5506 5505 5504 5504 5503 5503 5503 5504 5505 5506 5507 5507 5508
5558 5558 5557 5557 5556 5555 5553 5551 5549 5547 5544 5542 5539 5536 5534 5532 5530 5527 5525 5523 5520 5518 5516 5514 5511 5509 5507 5505 5503 5502 5501 5500 5499 5498 5498 5498 5498 5498 5498 5498 5499 5500 5500 5501
5552 5552 5551 5551 5550 5548 5547 5545 5543 5541 5538 5536 5533 5531 5528 5526 5524 5522 5519 5517 5515 5512 5510 5508 5505 5503 5501 5499 5497 5496 5495 5494 5493 5493 5493 5492 5492 5492 5492 5493 5493 5494 5494 5494
5546 5546 5546 5545 5544 5543 5541 5539 5537 5535 5533 5530 5527 5525 5522 5520 5518 5516 5514 5511 5509 5507 5504 5502 5500 5498 5496 5494 5492 5490 5490 5489 5488 5488 5487 5487 5487 5486 5487 5487 5487 5487 5487 5487
5541 5540 5540 5539 5538 5537 5535 5533 5531 5529 5527 5524 5522 5519 5517 5515 5513 5510 5508 5506 5503 5501 5499 5497 5495 5493 5491 5489 5487 5486 5485 5484 5484 5483 5482 5482 5481 5481 5481 5481 5481 5481 5481 5481
5535 5535 5534 5533 5532 5530 5529 5527 5525 5524 5521 5519 5516 5513 5511 5509 5507 5505 5502 5500 5498 5496 5494 5492 5490 5488 5486 5484 5483 5481 5480 5479 5479 5478 5478 5477 5476 5475 5475 5475 5475 5475 5475 5475
5530 5529 5528 5527 5526 5524 5522 5521 5519 5517 5515 5512 5510 5508 5505 5503 5501 5499 5497 5495 5492 5490 5489 5487 5485 5483 5482 5480 5478 5477 5476 5475 5474 5473 5472 5471 5471 5470 5470 5469 5469 5469 5469 5469
5523 5523 5522 5521 5520 5518 5516 5515 5513 5511 5509 5506 5504 5502 5499 5497 5495 5493 5491 5489 5487 5485 5484 5482 5481 5479 5477 5476 5474 5473 5472 5471 5470 5469 5467 5467 5466 5465 5465 5464 5464 5464 5464 5464
5518 5517 5516 5515 5513 5512 5510 5509 5507 5505 5502 5500 5497 5495 5493 5491 5489 5487 5485 5483 5482 5480 5479 5477 5476 5474 5473 5472 5470 5469 5468 5467 5466 5465 5464 5463 5462 5461 5461 5460 5460 5460 5459 5459
5512 5511 5510 5509 5507 5506 5504 5502 5500 5498 5496 5493 5491 5489 5487 5485 5483 5481 5479 5478 5476 5475 5473 5472 5471 5470 5469 5467 5466 5465 5464 5463 5462 5461 5460 5459 5459 5458 5457 5457 5456 5456 5456 5455
5506 5504 5503 5502 5501 5499 5497 5495 5493 5491 5489 5486 5484 5483 5481 5479 5477 5476 5474 5473 5471 5470 5468 5467 5466 5465 5464 5463 5462 5461 5460 5460 5459 5458 5457 5456 5456 5455 5454 5453 5453 5452 5452 5452
5499 5498 5497 5495 5494 5492 5490 5488 5486 5484 5482 5480 5478 5476 5475 5473 5472 5470 5469 5468 5466 5465 5463 5462 5461 5460 5459 5458 5458 5457 5456 5456 5455 5454 5454 5453 5452 5451 5450 5450 5449 5448 5448 5449
5492 5491 5490 5488 5487 5485 5483 5481 5479 5477 5475 5473 5472 5470 5469 5467 5466 5465 5464 5463 5461 5460 5459 5458 5457 5456 5455 5455 5454 5453 5453 5452 5451 5451 5450 5449 5449 5448 5447 5446 5446 5445 5446 5446
5485 5484 5483 5481 5480 5478 5476 5474 5472 5470 5468 5467 5465 5464 5463 5462 5461 5460 5459 5458 5456 5455 5454 5454 5453 5452 5451 5451 5450 5450 5449 5449 5448 5447 5447 5446 5446 5445 5444 5444 5443 5443 5443 5443
5478 5477 5476 5474 5473 5471 5469 5467 5465 5464 5462 5460 5459 5458 5457 5456 5455 5454 5453 5452 5452 5451 5450 5449 5449 5448 5448 5447 5447 5446 5446 5445 5445 5444 5444 5443 5443 5442 5442 5441 5441 5441 5441 5441
5472 5471 5469 5468 5466 5464 5462 5461 5459 5457 5456 5454 5453 5452 5451 5451 5450 5449 5448 5448 5447 5446 5446 5445 5445 5444 5444 5444 5443 5443 5443 5443 5442 5442 5441 5441 5440 5440 5439 5439 5438 5438 5439 5439
5466 5464 5463 5461 5459 5458 5456 5454 5453 5452 5450 5449 5448 5447 5447 5446 5445 5445 5444 5443 5442 5442 5441 5441 5441 5440 5440 5440 5440 5440 5440 5439 5439 5439 5438 5438 5438 5437 5437 5436 5436 5436 5437 5437